Regional Weather Roundup
Issued by NWS

Home | Current Version | Previous Version | Text Only | Print | Product List | Glossary On
Versions: 1 2 3 4 5 6 7 8 9 10 11 12 13 14 15 16 17 18 19 20 21 22 23 24 25 26 27 28 29 30 31 32 33 34 35 36 37 38 39 40 41 42 43 44 45 46 47 48 49 50
000
ASUS45 KABQ 200110
RWRNM
NEW MEXICO REGIONAL WEATHER ROUNDUP
NATIONAL WEATHER SERVICE ALBUQUERQUE NM
700 PM MDT SAT AUG 19 2017

NOTE: "FAIR" MEANS FEW OR NO CLOUDS BELOW 12,000 FEET AGL WITH NO
       SIGNIFICANT WEATHER OR OBSTRUCTIONS TO VISION.

      THIS PRODUCT IS RELEASED AS TWO VERSIONS.  ONE VERSION NEAR
      THE TOP OF THE HOUR CONTAINING PRELIMINARY DATA FROM ALBUQUERQUE
      AND OTHER STATIONS.  A FINAL VERSION WITH ADDITIONAL DATA IS
      ISSUED ABOUT 10 MINUTES AFTER THE HOUR.

NMZ501-503-504-510>518-200200-
NORTHWEST PLATEAU/NORTHCENTRAL MOUNTAINS

CITY           SKY/WX    TMP DP  RH WIND       PRES   REMARKS
FARMINGTON     FAIR      90  25   9 W13       30.03F
LOS ALAMOS     LGT RAIN  71  45  40 S17G23    30.28R
SANTA FE       FAIR      73  47  39 SE17G25   30.20R
TAOS           FAIR      77  37  23 SW10      30.23S
ANGEL FIRE     FAIR      67  45  45 SW15      30.33S

$$
NMZ402-403-502-505>509-200200-
WESTCENTRAL MOUNTAINS/SOUTHWEST MOUNTAINS

CITY           SKY/WX    TMP DP  RH WIND       PRES   REMARKS
GALLUP         FAIR      85  29  13 W7        30.13F
GRANTS         FAIR      84  27  12 CALM      30.15S
SILVER CITY    FAIR      74  47  38 NW7       30.14R

$$
NMZ407-409-411-412-200200-
SOUTHERN DESERTS

CITY           SKY/WX    TMP DP  RH WIND       PRES   REMARKS
DEMING         FAIR      81  54  39 SW3       30.05S
LAS CRUCES     FAIR      84  52  33 SW5       30.06S
HOLLOMAN AFB   PTCLDY    86  53  31 NE18      30.04R
ALAMOGORDO     FAIR      84  50  30 NE14      30.04R
T OR C         FAIR      86  51  29 S9        30.05S

$$
NMZ519>523-200200-
CENTRAL VALLEYS/CENTRAL HIGHLANDS

CITY           SKY/WX    TMP DP  RH WIND       PRES   REMARKS
ALBUQUERQUE    MOCLDY    79  45  29 E23G31    30.08S
DOUBLE EAGLE   MOCLDY    81  45  28 SE17      30.12S
MORIARTY ARPT  FAIR      71  49  46 E13       30.20F
CLINES CORNERS FAIR      65  49  56 E5        30.28F
BELEN          FAIR      83  41  22 SE18G24   30.08R
SOCORRO        FAIR      84  49  29 SE7       30.05S

$$
NMZ524>526-539-540-200200-
SOUTHCENTRAL MOUNTAINS

CITY           SKY/WX    TMP DP  RH WIND       PRES   REMARKS
RUIDOSO        MOCLDY    61  50  67 W16G24    30.27F

$$
NMZ527>531-200200-
NORTHEAST HIGHLANDS/NORTHEAST PLAINS

CITY           SKY/WX    TMP DP  RH WIND       PRES   REMARKS
LAS VEGAS      FAIR      64  51  62 SW12      30.24F
RATON          FAIR      74  48  39 S14       30.16S
CLAYTON        LGT RAIN  74  52  46 S26G32    30.10F

$$
NMZ532>537-200200-
EASTCENTRAL PLAINS

CITY           SKY/WX    TMP DP  RH WIND       PRES   REMARKS
SANTA ROSA     FAIR      76  50  40 NE5       30.13R
TUCUMCARI      FAIR      87  56  34 S8        30.01R
CANNON AFB     FAIR      80  64  57 S8        30.07S
CLOVIS AIRPORT FAIR      78  64  61 S8        30.07R

$$
NMZ028-029-538-200200-
SOUTHEAST PLAINS

CITY           SKY/WX    TMP DP  RH WIND       PRES   REMARKS
ROSWELL        FAIR      86  58  38 S15       30.01R
ARTESIA        FAIR      84  57  39 S14       30.01S
CARLSBAD       FAIR      76  71  85 S6        29.97F
HOBBS          FAIR      84  59  42 SE9       30.02S


$$




USA.gov is the U.S. government's official web portal to all federal, state and local government web resources and services.